,,,PA_Meas_PMT16A,,PR_Meas_QMR101_102,,RH_Meas_QMH101,,SR_Meas_QMS101,,TA_Meas_QMH101,,GenWind,,GenWind,
date,time,status,PA,status,PR,status,RH,status,SR,status,TA,status,DirAvg,status,SpdAvg,
2008-11-07, 00:00:04,VALID,1007.91,VALID,0,VALID,92.9503,VALID,0,VALID,23.8499,VALID,39,VALID,0,
2008-11-07, 00:01:04,VALID,1007.91,VALID,0,VALID,92.9427,VALID,0,VALID,23.8286,VALID,39,VALID,0,
2008-11-07, 00:02:04,VALID,1007.87,VALID,0,VALID,93.0418,VALID,0,VALID,23.8286,VALID,39,VALID,0,
2008-11-07, 00:03:04,VALID,1007.85,VALID,0,VALID,93.1257,VALID,0,VALID,23.8091,VALID,39,VALID,0,
2008-11-07, 00:04:04,VALID,1007.85,VALID,0,VALID,93.1943,VALID,0,VALID,23.7896,VALID,39,VALID,0,
2008-11-07, 00:05:04,VALID,1007.83,VALID,0,VALID,93.1715,VALID,0,VALID,23.7896,VALID,39,VALID,0,
2008-11-07, 00:06:04,VALID,1007.78,VALID,0,VALID,93.1486,VALID,0.105969,VALID,23.8109,VALID,39,VALID,0,
2008-11-07, 00:07:04,VALID,1007.8,VALID,0,VALID,93.141,VALID,0,VALID,23.7507,VALID,39,VALID,0,
2008-11-07, 00:08:04,VALID,1007.78,VALID,0,VALID,93.1791,VALID,0,VALID,23.7507,VALID,39,VALID,0,
2008-11-07, 00:09:04,VALID,1007.8,VALID,0,VALID,93.2325,VALID,0,VALID,23.7312,VALID,39,VALID,0,
2008-11-07, 00:10:04,VALID,1007.77,VALID,0,VALID,93.263,VALID,0,VALID,23.7117,VALID,39,VALID,0,
2008-11-07, 00:11:04,VALID,1007.77,VALID,0,VALID,93.3087,VALID,0,VALID,23.7117,VALID,39,VALID,0,
2008-11-07, 00:12:04,VALID,1007.74,VALID,0,VALID,93.3316,VALID,0,VALID,23.733,VALID,39,VALID,0,
2008-11-07, 00:13:04,VALID,1007.72,VALID,0,VALID,93.3773,VALID,0,VALID,23.7117,VALID,39,VALID,0,
2008-11-07, 00:14:04,VALID,1007.73,VALID,0,VALID,93.4079,VALID,0,VALID,23.6922,VALID,39,VALID,0,
2008-11-07, 00:15:04,VALID,1007.74,VALID,0,VALID,93.4536,VALID,0,VALID,23.6709,VALID,39,VALID,0,
2008-11-07, 00:16:04,VALID,1007.73,VALID,0,VALID,93.4994,VALID,0,VALID,23.6727,VALID,39,VALID,0,
2008-11-07, 00:17:04,VALID,1007.71,VALID,0,VALID,93.5909,VALID,0,VALID,23.7135,VALID,39,VALID,0,
2008-11-07, 00:18:04,VALID,1007.71,VALID,0,VALID,93.6442,VALID,0,VALID,23.7117,VALID,39,VALID,0,
2008-11-07, 00:19:04,VALID,1007.71,VALID,0,VALID,93.6976,VALID,0,VALID,23.733,VALID,39,VALID,0,
2008-11-07, 00:20:04,VALID,1007.7,VALID,0,VALID,93.6824,VALID,0,VALID,23.6727,VALID,39,VALID,0,
2008-11-07, 00:21:04,VALID,1007.69,VALID,0,VALID,93.6442,VALID,0,VALID,23.6727,VALID,39,VALID,0,
2008-11-07, 00:22:04,VALID,1007.65,VALID,0,VALID,93.6442,VALID,0,VALID,23.7135,VALID,39,VALID,0,
2008-11-07, 00:23:04,VALID,1007.67,VALID,0,VALID,93.7205,VALID,0,VALID,23.6922,VALID,39,VALID,0,
2008-11-07, 00:24:04,VALID,1007.67,VALID,0,VALID,93.7663,VALID,0,VALID,23.7117,VALID,39,VALID,0,
2008-11-07, 00:25:04,VALID,1007.66,VALID,0,VALID,93.7281,VALID,0,VALID,23.7135,VALID,39,VALID,0,
2008-11-07, 00:26:04,VALID,1007.69,VALID,0,VALID,93.7129,VALID,0,VALID,23.733,VALID,39,VALID,0,
2008-11-07, 00:27:04,VALID,1007.71,VALID,0,VALID,93.7129,VALID,0,VALID,23.7117,VALID,39,VALID,0,
2008-11-07, 00:28:04,VALID,1007.66,VALID,0,VALID,93.7434,VALID,0,VALID,23.7312,VALID,39,VALID,0,
2008-11-07, 00:29:04,VALID,1007.72,VALID,0,VALID,93.812,VALID,0,VALID,23.7701,VALID,39,VALID,0,
2008-11-07, 00:30:04,VALID,1007.69,VALID,0,VALID,93.812,VALID,0,VALID,23.7701,VALID,39,VALID,0,
2008-11-07, 00:31:04,VALID,1007.72,VALID,0,VALID,93.7586,VALID,0,VALID,23.772,VALID,39,VALID,0,
2008-11-07, 00:32:04,VALID,1007.68,VALID,0,VALID,93.7129,VALID,0,VALID,23.7701,VALID,39,VALID,0,
2008-11-07, 00:33:04,VALID,1007.7,VALID,0,VALID,93.6061,VALID,0,VALID,23.7701,VALID,39,VALID,0,
2008-11-07, 00:34:04,VALID,1007.69,VALID,0,VALID,93.5375,VALID,0,VALID,23.7914,VALID,39,VALID,0,
2008-11-07, 00:35:04,VALID,1007.68,VALID,0,VALID,93.5451,VALID,0,VALID,23.7896,VALID,39,VALID,0,
2008-11-07, 00:36:04,VALID,1007.67,VALID,0,VALID,93.4994,VALID,0,VALID,23.8109,VALID,39,VALID,0,
2008-11-07, 00:37:04,VALID,1007.67,VALID,0,VALID,93.4689,VALID,0,VALID,23.7701,VALID,39,VALID,0,
2008-11-07, 00:38:04,VALID,1007.68,VALID,0,VALID,93.4536,VALID,0,VALID,23.7914,VALID,39,VALID,0,
2008-11-07, 00:39:04,VALID,1007.7,VALID,0,VALID,93.446,VALID,0,VALID,23.7914,VALID,39,VALID,0,
2008-11-07, 00:40:04,VALID,1007.7,VALID,0,VALID,93.4231,VALID,0,VALID,23.7507,VALID,39,VALID,0,
2008-11-07, 00:41:04,VALID,1007.7,VALID,0,VALID,93.4079,VALID,0,VALID,23.7525,VALID,40,VALID,0,
2008-11-07, 00:42:04,VALID,1007.71,VALID,0,VALID,93.3087,VALID,0,VALID,23.7507,VALID,39,VALID,0,
2008-11-07, 00:43:04,VALID,1007.72,VALID,0,VALID,93.2858,VALID,0,VALID,23.7525,VALID,39,VALID,0,
2008-11-07, 00:44:04,VALID,1007.7,VALID,0,VALID,93.2401,VALID,0,VALID,23.7525,VALID,39,VALID,0,
2008-11-07, 00:45:04,VALID,1007.69,VALID,0,VALID,93.2477,VALID,0,VALID,23.7525,VALID,39,VALID,0,
2008-11-07, 00:46:04,VALID,1007.67,VALID,0,VALID,93.3011,VALID,0,VALID,23.733,VALID,39,VALID,0,
2008-11-07, 00:47:04,VALID,1007.68,VALID,0,VALID,93.3697,VALID,0.105969,VALID,23.7117,VALID,39,VALID,0,
2008-11-07, 00:48:04,VALID,1007.66,VALID,0,VALID,93.3773,VALID,0,VALID,23.7312,VALID,39,VALID,0,
2008-11-07, 00:49:04,VALID,1007.63,VALID,0,VALID,93.4384,VALID,0,VALID,23.7507,VALID,39,VALID,0,
2008-11-07, 00:50:04,VALID,1007.64,VALID,0,VALID,93.4536,VALID,0,VALID,23.7525,VALID,39,VALID,0,
2008-11-07, 00:51:04,VALID,1007.65,VALID,0,VALID,93.4384,VALID,0,VALID,23.733,VALID,7,VALID,0.256641,
2008-11-07, 00:52:04,VALID,1007.64,VALID,0,VALID,93.4765,VALID,0,VALID,23.694,VALID,3,VALID,1.00391,
2008-11-07, 00:53:04,VALID,1007.62,VALID,0,VALID,93.4994,VALID,0,VALID,23.6727,VALID,360,VALID,0.735547,
2008-11-07, 00:54:04,VALID,1007.62,VALID,0,VALID,93.4536,VALID,0,VALID,23.6922,VALID,359,VALID,0.355469,
2008-11-07, 00:55:04,VALID,1007.63,VALID,0,VALID,93.3621,VALID,0,VALID,23.6727,VALID,359,VALID,0.0152344,
2008-11-07, 00:56:04,VALID,1007.63,VALID,0,VALID,93.3163,VALID,0,VALID,23.6532,VALID,359,VALID,0.253125,
2008-11-07, 00:57:04,VALID,1007.61,VALID,0,VALID,93.2325,VALID,0,VALID,23.6356,VALID,10,VALID,0.361328,
2008-11-07, 00:58:04,VALID,1007.59,VALID,0,VALID,93.2401,VALID,0,VALID,23.6143,VALID,60,VALID,0.511328,
2008-11-07, 00:59:04,VALID,1007.58,VALID,0,VALID,93.2706,VALID,0,VALID,23.5753,VALID,47,VALID,0.592188,
2008-11-07, 01:00:04,VALID,1007.55,VALID,0,VALID,93.2935,VALID,0,VALID,23.5771,VALID,47,VALID,0.521094,
2008-11-07, 01:01:04,VALID,1007.58,VALID,0,VALID,93.3392,VALID,0,VALID,23.5363,VALID,49,VALID,0.703906,
2008-11-07, 01:02:04,VALID,1007.54,VALID,0,VALID,93.4002,VALID,0,VALID,23.5186,VALID,59,VALID,0.580078,
2008-11-07, 01:03:04,VALID,1007.52,VALID,0,VALID,93.4765,VALID,0,VALID,23.5186,VALID,69,VALID,0.71875,
2008-11-07, 01:04:04,VALID,1007.53,VALID,0,VALID,93.5756,VALID,0,VALID,23.5186,VALID,70,VALID,0.592578,
2008-11-07, 01:05:04,VALID,1007.52,VALID,0,VALID,93.629,VALID,0,VALID,23.4992,VALID,71,VALID,0.547266,
2008-11-07, 01:06:04,VALID,1007.52,VALID,0,VALID,93.6748,VALID,0,VALID,23.4779,VALID,73,VALID,0.538672,
2008-11-07, 01:07:04,VALID,1007.52,VALID,0,VALID,93.7205,VALID,0.105969,VALID,23.4779,VALID,73,VALID,0.157031,
2008-11-07, 01:08:04,VALID,1007.49,VALID,0,VALID,93.7205,VALID,0,VALID,23.4974,VALID,73,VALID,0.217187,
2008-11-07, 01:09:04,VALID,1007.51,VALID,0,VALID,93.7358,VALID,0,VALID,23.4779,VALID,73,VALID,0.159375,
2008-11-07, 01:10:04,VALID,1007.47,VALID,0,VALID,93.7434,VALID,0,VALID,23.4779,VALID,73,VALID,0.332031,
2008-11-07, 01:11:04,VALID,1007.44,VALID,0,VALID,93.751,VALID,0,VALID,23.4992,VALID,64,VALID,0.558594,
2008-11-07, 01:12:04,VALID,1007.46,VALID,0,VALID,93.7129,VALID,0,VALID,23.4992,VALID,50,VALID,0.767187,
2008-11-07, 01:13:04,VALID,1007.41,VALID,0,VALID,93.69,VALID,0,VALID,23.4779,VALID,46,VALID,0.351953,
2008-11-07, 01:14:04,VALID,1007.42,VALID,0,VALID,93.6824,VALID,0,VALID,23.4584,VALID,73,VALID,0.673828,
2008-11-07, 01:15:04,VALID,1007.4,VALID,0,VALID,93.69,VALID,0,VALID,23.4584,VALID,75,VALID,0.740234,
2008-11-07, 01:16:04,VALID,1007.41,VALID,0,VALID,93.7205,VALID,0,VALID,23.4389,VALID,77,VALID,0.44375,
2008-11-07, 01:17:04,VALID,1007.42,VALID,0,VALID,93.751,VALID,0,VALID,23.4389,VALID,79,VALID,0.708203,
2008-11-07, 01:18:04,VALID,1007.45,VALID,0,VALID,93.751,VALID,0,VALID,23.4389,VALID,70,VALID,0.602734,
2008-11-07, 01:19:04,VALID,1007.46,VALID,0,VALID,93.7663,VALID,0,VALID,23.4389,VALID,70,VALID,0.335938,
2008-11-07, 01:20:04,VALID,1007.45,VALID,0,VALID,93.7663,VALID,0,VALID,23.4389,VALID,43,VALID,0.507422,
2008-11-07, 01:21:04,VALID,1007.43,VALID,0,VALID,93.7815,VALID,0.105969,VALID,23.4602,VALID,62,VALID,0.46875,
2008-11-07, 01:22:04,VALID,1007.41,VALID,0,VALID,93.7815,VALID,0,VALID,23.4194,VALID,74,VALID,0.616016,
2008-11-07, 01:23:04,VALID,1007.42,VALID,0,VALID,93.7815,VALID,0,VALID,23.4389,VALID,93,VALID,0.525781,
2008-11-07, 01:24:04,VALID,1007.41,VALID,0,VALID,93.7968,VALID,0,VALID,23.4389,VALID,92,VALID,0.2625,
2008-11-07, 01:25:04,VALID,1007.43,VALID,0,VALID,93.7891,VALID,0,VALID,23.4602,VALID,86,VALID,0.185937,
2008-11-07, 01:26:04,VALID,1007.42,VALID,0,VALID,93.812,VALID,0,VALID,23.4407,VALID,85,VALID,0.0957031,
2008-11-07, 01:27:04,VALID,1007.42,VALID,0,VALID,93.7968,VALID,0,VALID,23.4194,VALID,75,VALID,0,
2008-11-07, 01:28:04,VALID,1007.44,VALID,0,VALID,93.7968,VALID,0,VALID,23.4194,VALID,75,VALID,0,
2008-11-07, 01:29:04,VALID,1007.41,VALID,0,VALID,93.7968,VALID,0.105969,VALID,23.4194,VALID,75,VALID,0,
2008-11-07, 01:30:04,VALID,1007.39,VALID,0,VALID,93.7968,VALID,0,VALID,23.4194,VALID,75,VALID,0,
2008-11-07, 01:31:04,VALID,1007.38,VALID,0,VALID,93.7815,VALID,0,VALID,23.4,VALID,73,VALID,0.558203,
2008-11-07, 01:32:04,VALID,1007.37,VALID,0,VALID,93.7663,VALID,0.105969,VALID,23.4194,VALID,63,VALID,0.269922,
2008-11-07, 01:33:04,VALID,1007.35,VALID,0,VALID,93.7434,VALID,0,VALID,23.4,VALID,63,VALID,0.303125,
2008-11-07, 01:34:04,VALID,1007.33,VALID,0,VALID,93.7358,VALID,0.105969,VALID,23.4,VALID,64,VALID,0.396875,
2008-11-07, 01:35:04,VALID,1007.32,VALID,0,VALID,93.7663,VALID,0,VALID,23.4194,VALID,67,VALID,0.185156,
2008-11-07, 01:36:04,VALID,1007.29,VALID,0,VALID,93.8044,VALID,0.105969,VALID,23.4194,VALID,67,VALID,0.403516,
2008-11-07, 01:37:04,VALID,1007.29,VALID,0,VALID,93.812,VALID,0,VALID,23.4602,VALID,67,VALID,0.286328,
2008-11-07, 01:38:04,VALID,1007.26,VALID,0,VALID,93.8349,VALID,0,VALID,23.4407,VALID,67,VALID,0.215234,
2008-11-07, 01:39:04,VALID,1007.28,VALID,0,VALID,93.7891,VALID,0,VALID,23.4389,VALID,67,VALID,0.341797,
2008-11-07, 01:40:04,VALID,1007.29,VALID,0,VALID,93.7739,VALID,0.105969,VALID,23.4797,VALID,67,VALID,0.203516,
2008-11-07, 01:41:04,VALID,1007.3,VALID,0,VALID,93.7129,VALID,0,VALID,23.4584,VALID,67,VALID,0,
2008-11-07, 01:42:04,VALID,1007.28,VALID,0,VALID,93.6366,VALID,0,VALID,23.4797,VALID,66,VALID,0.196875,
2008-11-07, 01:43:04,VALID,1007.3,VALID,0,VALID,93.5832,VALID,0,VALID,23.4797,VALID,66,VALID,0.149609,
2008-11-07, 01:44:04,VALID,1007.31,VALID,0,VALID,93.5527,VALID,0,VALID,23.4602,VALID,66,VALID,0.0015625,
2008-11-07, 01:45:04,VALID,1007.32,VALID,0,VALID,93.507,VALID,0,VALID,23.4407,VALID,66,VALID,0,
2008-11-07, 01:46:04,VALID,1007.31,VALID,0,VALID,93.4689,VALID,0.105969,VALID,23.4602,VALID,66,VALID,0,
2008-11-07, 01:47:04,VALID,1007.32,VALID,0,VALID,93.4841,VALID,0.105969,VALID,23.4389,VALID,66,VALID,0,
2008-11-07, 01:48:04,VALID,1007.31,VALID,0,VALID,93.4917,VALID,0,VALID,23.4407,VALID,66,VALID,0,
2008-11-07, 01:49:04,VALID,1007.3,VALID,0,VALID,93.4841,VALID,0,VALID,23.4602,VALID,66,VALID,0,
2008-11-07, 01:50:04,VALID,1007.3,VALID,0,VALID,93.5299,VALID,0,VALID,23.4407,VALID,66,VALID,0,
2008-11-07, 01:51:04,VALID,1007.26,VALID,0,VALID,93.5451,VALID,0.105969,VALID,23.4194,VALID,66,VALID,0,
2008-11-07, 01:52:04,VALID,1007.24,VALID,0,VALID,93.5299,VALID,0,VALID,23.4212,VALID,66,VALID,0,
2008-11-07, 01:53:04,VALID,1007.23,VALID,0,VALID,93.5604,VALID,0,VALID,23.4,VALID,56,VALID,0,
2008-11-07, 01:54:04,VALID,1007.22,VALID,0,VALID,93.5375,VALID,0,VALID,23.3805,VALID,17,VALID,0.388672,
2008-11-07, 01:55:04,VALID,1007.19,VALID,0,VALID,93.5604,VALID,0,VALID,23.3805,VALID,7,VALID,0.198828,
2008-11-07, 01:56:04,VALID,1007.16,VALID,0,VALID,93.5604,VALID,0.105969,VALID,23.4017,VALID,7,VALID,0.00195313,
2008-11-07, 01:57:04,VALID,1007.14,VALID,0,VALID,93.5604,VALID,0.105969,VALID,23.3805,VALID,7,VALID,0,
2008-11-07, 01:58:04,VALID,1007.15,VALID,0,VALID,93.5756,VALID,0,VALID,23.361,VALID,7,VALID,0,
2008-11-07, 01:59:04,VALID,1007.14,VALID,0,VALID,93.5756,VALID,0,VALID,23.361,VALID,7,VALID,0,
2008-11-07, 02:00:04,VALID,1007.19,VALID,0,VALID,93.6061,VALID,0,VALID,23.3433,VALID,7,VALID,0,
2008-11-07, 02:01:04,VALID,1007.17,VALID,0,VALID,93.6442,VALID,0,VALID,23.322,VALID,7,VALID,0,
2008-11-07, 02:02:04,VALID,1007.15,VALID,0,VALID,93.6748,VALID,0,VALID,23.3238,VALID,7,VALID,0,
2008-11-07, 02:03:04,VALID,1007.16,VALID,0,VALID,93.7129,VALID,0,VALID,23.3238,VALID,7,VALID,0,
2008-11-07, 02:04:04,VALID,1007.18,VALID,0,VALID,93.7663,VALID,0,VALID,23.3026,VALID,7,VALID,0,
2008-11-07, 02:05:04,VALID,1007.19,VALID,0,VALID,93.8196,VALID,0,VALID,23.2831,VALID,7,VALID,0,
2008-11-07, 02:06:04,VALID,1007.14,VALID,0,VALID,93.8654,VALID,0.105969,VALID,23.2831,VALID,7,VALID,0,
2008-11-07, 02:07:04,VALID,1007.15,VALID,0,VALID,93.9264,VALID,0,VALID,23.3238,VALID,7,VALID,0.328906,
2008-11-07, 02:08:04,VALID,1007.15,VALID,0,VALID,93.9722,VALID,0,VALID,23.3238,VALID,115,VALID,0.542188,
2008-11-07, 02:09:04,VALID,1007.16,VALID,0,VALID,93.9722,VALID,0,VALID,23.3043,VALID,115,VALID,0.731641,
2008-11-07, 02:10:04,VALID,1007.14,VALID,0,VALID,93.9264,VALID,0,VALID,23.3238,VALID,113,VALID,0.548828,
2008-11-07, 02:11:04,VALID,1007.16,VALID,0,VALID,93.8578,VALID,0,VALID,23.3433,VALID,106,VALID,0.510156,
2008-11-07, 02:12:04,VALID,1007.15,VALID,0,VALID,93.8044,VALID,0,VALID,23.3628,VALID,88,VALID,0.591406,
2008-11-07, 02:13:04,VALID,1007.17,VALID,0,VALID,93.7586,VALID,0,VALID,23.4017,VALID,88,VALID,0.334766,
2008-11-07, 02:14:04,VALID,1007.15,VALID,0,VALID,93.6442,VALID,0,VALID,23.361,VALID,77,VALID,0.488672,
2008-11-07, 02:15:04,VALID,1007.14,VALID,0,VALID,93.5451,VALID,0,VALID,23.4017,VALID,77,VALID,0.275781,
2008-11-07, 02:16:04,VALID,1007.12,VALID,0,VALID,93.4384,VALID,0,VALID,23.3823,VALID,77,VALID,0.334375,
2008-11-07, 02:17:04,VALID,1007.14,VALID,0,VALID,93.4079,VALID,0,VALID,23.4017,VALID,75,VALID,0.307422,
2008-11-07, 02:18:04,VALID,1007.15,VALID,0,VALID,93.4155,VALID,0,VALID,23.4017,VALID,75,VALID,0.00585938,
2008-11-07, 02:19:04,VALID,1007.2,VALID,0,VALID,93.4612,VALID,0,VALID,23.3823,VALID,73,VALID,0.277734,
2008-11-07, 02:20:04,VALID,1007.19,VALID,0,VALID,93.4841,VALID,0.105969,VALID,23.4017,VALID,53,VALID,0.255859,
2008-11-07, 02:21:04,VALID,1007.21,VALID,0,VALID,93.5451,VALID,0,VALID,23.4,VALID,313,VALID,0.177344,
2008-11-07, 02:22:04,VALID,1007.21,VALID,0,VALID,93.507,VALID,0,VALID,23.4212,VALID,313,VALID,0.212109,
2008-11-07, 02:23:04,VALID,1007.34,VALID,0,VALID,93.446,VALID,0.105969,VALID,23.4407,VALID,249,VALID,0.657422,
2008-11-07, 02:24:04,VALID,1007.46,VALID,0,VALID,93.4002,VALID,0.105969,VALID,23.4992,VALID,251,VALID,1.15352,
2008-11-07, 02:25:04,VALID,1007.5,VALID,0.5,VALID,93.5756,VALID,0,VALID,23.5558,VALID,247,VALID,0.703516,
2008-11-07, 02:26:04,VALID,1007.44,VALID,1,VALID,93.8044,VALID,0,VALID,23.5558,VALID,329,VALID,1.2332,
2008-11-07, 02:27:04,VALID,1007.36,VALID,1,VALID,94.0255,VALID,0.105969,VALID,23.5966,VALID,357,VALID,1.42734,
2008-11-07, 02:28:04,VALID,1007.25,VALID,1,VALID,94.1933,VALID,0,VALID,23.5558,VALID,7,VALID,1.38633,
2008-11-07, 02:29:04,VALID,1007.13,VALID,1,VALID,94.3839,VALID,0,VALID,23.5169,VALID,50,VALID,1.69375,
2008-11-07, 02:30:04,VALID,1007.16,VALID,0,VALID,94.5288,VALID,0,VALID,23.5363,VALID,37,VALID,0.889844,
2008-11-07, 02:31:04,VALID,1007.14,VALID,0,VALID,94.5975,VALID,0,VALID,23.5558,VALID,42,VALID,0.335156,
2008-11-07, 02:32:04,VALID,1007.07,VALID,0,VALID,94.7119,VALID,0,VALID,23.5363,VALID,49,VALID,0.693359,
2008-11-07, 02:33:04,VALID,1007.07,VALID,0,VALID,94.7881,VALID,0,VALID,23.5558,VALID,38,VALID,0.0910156,
2008-11-07, 02:34:04,VALID,1007.1,VALID,0,VALID,94.8491,VALID,0,VALID,23.5771,VALID,26,VALID,0.342969,
2008-11-07, 02:35:04,VALID,1007.11,VALID,0,VALID,94.933,VALID,0,VALID,23.5948,VALID,239,VALID,0.494531,
2008-11-07, 02:36:04,VALID,1007.11,VALID,0,VALID,94.9635,VALID,0,VALID,23.5948,VALID,234,VALID,0.481641,
2008-11-07, 02:37:04,VALID,1007.11,VALID,0,VALID,94.9788,VALID,0,VALID,23.6161,VALID,203,VALID,0.417578,
2008-11-07, 02:38:04,VALID,1007.11,VALID,0,VALID,95.0321,VALID,0,VALID,23.6161,VALID,201,VALID,0.239063,
2008-11-07, 02:39:04,VALID,1007.1,VALID,0,VALID,95.0703,VALID,0,VALID,23.6161,VALID,201,VALID,0.290625,
2008-11-07, 02:40:04,VALID,1007.09,VALID,0,VALID,95.0779,VALID,0,VALID,23.5771,VALID,187,VALID,0.359375,
2008-11-07, 02:41:04,VALID,1007.07,VALID,0,VALID,95.1008,VALID,0,VALID,23.6356,VALID,100,VALID,0.499219,
2008-11-07, 02:42:04,VALID,1007.08,VALID,0,VALID,95.1313,VALID,0.105969,VALID,23.655,VALID,101,VALID,0.403516,
2008-11-07, 02:43:04,VALID,1007.07,VALID,0,VALID,95.1618,VALID,0.105969,VALID,23.6143,VALID,107,VALID,0.364062,
2008-11-07, 02:44:04,VALID,1007.07,VALID,0,VALID,95.1465,VALID,0,VALID,23.5753,VALID,107,VALID,0.367578,
2008-11-07, 02:45:04,VALID,1007.08,VALID,0,VALID,95.1694,VALID,0.105969,VALID,23.5948,VALID,107,VALID,0.00585938,
2008-11-07, 02:46:04,VALID,1007.04,VALID,0,VALID,95.177,VALID,0,VALID,23.5966,VALID,107,VALID,0,
2008-11-07, 02:47:04,VALID,1007.05,VALID,0,VALID,95.1847,VALID,0,VALID,23.5771,VALID,107,VALID,0,
2008-11-07, 02:48:04,VALID,1007.1,VALID,0,VALID,95.2152,VALID,0,VALID,23.5753,VALID,106,VALID,0.410156,
2008-11-07, 02:49:04,VALID,1007.08,VALID,0,VALID,95.2533,VALID,0,VALID,23.5966,VALID,96,VALID,0.329297,
2008-11-07, 02:50:04,VALID,1007.06,VALID,0,VALID,95.2533,VALID,0,VALID,23.6356,VALID,64,VALID,0.58125,
2008-11-07, 02:51:04,VALID,1007.06,VALID,0,VALID,95.2609,VALID,0,VALID,23.5966,VALID,59,VALID,0.4,
2008-11-07, 02:52:04,VALID,1007.06,VALID,0,VALID,95.2685,VALID,0,VALID,23.5966,VALID,59,VALID,0.454297,
2008-11-07, 02:53:04,VALID,1007.03,VALID,0,VALID,95.2838,VALID,0,VALID,23.5771,VALID,74,VALID,0.948828,
2008-11-07, 02:54:04,VALID,1007.02,VALID,0,VALID,95.3067,VALID,0,VALID,23.5576,VALID,77,VALID,0.826953,
2008-11-07, 02:55:04,VALID,1006.99,VALID,0,VALID,95.3067,VALID,0,VALID,23.5576,VALID,87,VALID,0.798828,
2008-11-07, 02:56:04,VALID,1007.02,VALID,0,VALID,95.299,VALID,0,VALID,23.5576,VALID,84,VALID,0.704687,
2008-11-07, 02:57:04,VALID,1007.03,VALID,0,VALID,95.3143,VALID,0,VALID,23.5558,VALID,81,VALID,0.478516,
2008-11-07, 02:58:04,VALID,1007.09,VALID,0,VALID,95.3295,VALID,0,VALID,23.5381,VALID,61,VALID,0.485938,
2008-11-07, 02:59:04,VALID,1007.08,VALID,0,VALID,95.3524,VALID,0,VALID,23.5381,VALID,55,VALID,0.366406,
2008-11-07, 03:00:04,VALID,1007.08,VALID,0,VALID,95.3524,VALID,0,VALID,23.5169,VALID,54,VALID,0.420312,
2008-11-07, 03:01:04,VALID,1007.09,VALID,0,VALID,95.3372,VALID,0,VALID,23.4779,VALID,58,VALID,0.607031,
2008-11-07, 03:02:04,VALID,1007.08,VALID,0,VALID,95.3753,VALID,0,VALID,23.4992,VALID,69,VALID,0.519922,
2008-11-07, 03:03:04,VALID,1007.12,VALID,0,VALID,95.3829,VALID,0,VALID,23.4992,VALID,94,VALID,0.797266,
2008-11-07, 03:04:04,VALID,1007.07,VALID,0,VALID,95.36,VALID,0,VALID,23.5186,VALID,94,VALID,0.496484,
2008-11-07, 03:05:04,VALID,1007.08,VALID,0,VALID,95.3677,VALID,0,VALID,23.5186,VALID,105,VALID,0.919141,
2008-11-07, 03:06:04,VALID,1007.07,VALID,0,VALID,95.3677,VALID,0,VALID,23.4992,VALID,103,VALID,0.95,
2008-11-07, 03:07:04,VALID,1007.06,VALID,0,VALID,95.3677,VALID,0,VALID,23.4584,VALID,102,VALID,0.671875,
2008-11-07, 03:08:04,VALID,1007.06,VALID,0,VALID,95.3753,VALID,0,VALID,23.4779,VALID,94,VALID,0.669141,
2008-11-07, 03:09:04,VALID,1007.03,VALID,0,VALID,95.3829,VALID,0,VALID,23.4992,VALID,94,VALID,0.482031,
2008-11-07, 03:10:04,VALID,1007.05,VALID,0,VALID,95.3982,VALID,0,VALID,23.4779,VALID,94,VALID,0.350391,
2008-11-07, 03:11:04,VALID,1007.09,VALID,0,VALID,95.3982,VALID,0,VALID,23.5186,VALID,84,VALID,0.327734,
2008-11-07, 03:12:04,VALID,1007.1,VALID,0,VALID,95.4134,VALID,0,VALID,23.4992,VALID,84,VALID,0.05,
2008-11-07, 03:13:04,VALID,1007.1,VALID,0,VALID,95.3982,VALID,0,VALID,23.4602,VALID,84,VALID,0.373437,
2008-11-07, 03:14:04,VALID,1007.13,VALID,0,VALID,95.4058,VALID,0,VALID,23.4602,VALID,85,VALID,0.51875,
2008-11-07, 03:15:04,VALID,1007.15,VALID,0,VALID,95.4058,VALID,0,VALID,23.4602,VALID,85,VALID,0.253906,
2008-11-07, 03:16:04,VALID,1007.19,VALID,0,VALID,95.4134,VALID,0,VALID,23.4194,VALID,85,VALID,0.289063,
2008-11-07, 03:17:04,VALID,1007.18,VALID,0,VALID,95.4058,VALID,0,VALID,23.4194,VALID,78,VALID,0.219531,
2008-11-07, 03:18:04,VALID,1007.17,VALID,0,VALID,95.4134,VALID,0,VALID,23.4407,VALID,78,VALID,0.300781,
2008-11-07, 03:19:04,VALID,1007.17,VALID,0,VALID,95.4134,VALID,0,VALID,23.4602,VALID,75,VALID,0.383594,
2008-11-07, 03:20:04,VALID,1007.17,VALID,0,VALID,95.4134,VALID,0,VALID,23.4017,VALID,57,VALID,0.561328,
2008-11-07, 03:21:04,VALID,1007.17,VALID,0,VALID,95.4287,VALID,0,VALID,23.3823,VALID,56,VALID,0.419922,
2008-11-07, 03:22:04,VALID,1007.15,VALID,0,VALID,95.4287,VALID,0,VALID,23.3628,VALID,56,VALID,0.547266,
2008-11-07, 03:23:04,VALID,1007.19,VALID,0,VALID,95.4439,VALID,0,VALID,23.3628,VALID,61,VALID,0.417578,
2008-11-07, 03:24:04,VALID,1007.21,VALID,0,VALID,95.4516,VALID,0,VALID,23.3628,VALID,71,VALID,0.230469,
2008-11-07, 03:25:04,VALID,1007.21,VALID,0,VALID,95.4516,VALID,0,VALID,23.322,VALID,71,VALID,0.399609,
2008-11-07, 03:26:04,VALID,1007.24,VALID,0,VALID,95.4668,VALID,0,VALID,23.3433,VALID,73,VALID,0.283594,
2008-11-07, 03:27:04,VALID,1007.26,VALID,0,VALID,95.4439,VALID,0,VALID,23.3433,VALID,73,VALID,0,
2008-11-07, 03:28:04,VALID,1007.28,VALID,0,VALID,95.4668,VALID,0.105969,VALID,23.3238,VALID,46,VALID,0.360547,
2008-11-07, 03:29:04,VALID,1007.27,VALID,0,VALID,95.4668,VALID,0,VALID,23.2831,VALID,42,VALID,0.237109,
2008-11-07, 03:30:04,VALID,1007.29,VALID,0,VALID,95.4668,VALID,0.105969,VALID,23.3238,VALID,40,VALID,0.431641,
2008-11-07, 03:31:04,VALID,1007.29,VALID,0,VALID,95.4516,VALID,0,VALID,23.3043,VALID,40,VALID,0.296484,
2008-11-07, 03:32:04,VALID,1007.3,VALID,0,VALID,95.4821,VALID,0,VALID,23.2848,VALID,40,VALID,0,
2008-11-07, 03:33:04,VALID,1007.28,VALID,0,VALID,95.4897,VALID,0,VALID,23.2848,VALID,40,VALID,0,
2008-11-07, 03:34:04,VALID,1007.31,VALID,0,VALID,95.5126,VALID,0,VALID,23.2848,VALID,40,VALID,0.303125,
2008-11-07, 03:35:04,VALID,1007.31,VALID,0,VALID,95.5049,VALID,0,VALID,23.2441,VALID,66,VALID,0.394141,
2008-11-07, 03:36:04,VALID,1007.3,VALID,0,VALID,95.4973,VALID,0,VALID,23.3043,VALID,83,VALID,0.453125,
2008-11-07, 03:37:04,VALID,1007.3,VALID,0,VALID,95.4973,VALID,0,VALID,23.3238,VALID,95,VALID,0.467187,
2008-11-07, 03:38:04,VALID,1007.31,VALID,0,VALID,95.4897,VALID,0,VALID,23.3043,VALID,88,VALID,0.3875,
2008-11-07, 03:39:04,VALID,1007.28,VALID,0,VALID,95.4973,VALID,0,VALID,23.3238,VALID,88,VALID,0.210547,
2008-11-07, 03:40:04,VALID,1007.3,VALID,0,VALID,95.5049,VALID,0,VALID,23.3026,VALID,88,VALID,0,
2008-11-07, 03:41:04,VALID,1007.32,VALID,0,VALID,95.5202,VALID,0,VALID,23.3238,VALID,88,VALID,0.00195313,
2008-11-07, 03:42:04,VALID,1007.3,VALID,0,VALID,95.5202,VALID,0,VALID,23.3238,VALID,88,VALID,0,
2008-11-07, 03:43:04,VALID,1007.31,VALID,0,VALID,95.4973,VALID,0,VALID,23.2848,VALID,88,VALID,0,
2008-11-07, 03:44:04,VALID,1007.29,VALID,0,VALID,95.5278,VALID,0,VALID,23.3043,VALID,88,VALID,0,
2008-11-07, 03:45:04,VALID,1007.3,VALID,0,VALID,95.5202,VALID,0,VALID,23.3043,VALID,88,VALID,0,
2008-11-07, 03:46:04,VALID,1007.28,VALID,0,VALID,95.5126,VALID,0,VALID,23.2848,VALID,88,VALID,0,
2008-11-07, 03:47:04,VALID,1007.27,VALID,0,VALID,95.5049,VALID,0,VALID,23.2831,VALID,88,VALID,0,
2008-11-07, 03:48:04,VALID,1007.28,VALID,0,VALID,95.5202,VALID,0.105969,VALID,23.2831,VALID,88,VALID,0,
2008-11-07, 03:49:04,VALID,1007.29,VALID,0,VALID,95.5431,VALID,0,VALID,23.3238,VALID,88,VALID,0,
2008-11-07, 03:50:04,VALID,1007.31,VALID,0,VALID,95.5431,VALID,0,VALID,23.3238,VALID,88,VALID,0.1375,